Find Starlink 1446

NORAD ID: 45663 Int'l Des: 2020-035 Owner: SPXS Country: US Constellation: starlink operational
LEOCIRCULAR

Live Position

Loading 3D Globe...

About Starlink 1446

Description loading...

Upcoming Passes

Passes for default location (London). Set your location on the main map for personalized predictions.

Altitude History

Loading altitude history...

Two-Line Element Set

1 45663U 20035G 26110.50218459 .00017927 00000-0 38574-3 0 9994
2 45663 53.0218 160.4813 0003994 39.3583 320.7712 15.44726093326132
Epoch: Apr 20, 2026 • Age: 10 hours

Current Status

Altitude 444.2 km
Velocity 7.64 km/s
Sub-Earth Point -30.65°S, 178.95°W
Launch Date Jun 4, 2020
Age 5.8 years
Type internet

Technical Details

Classification Payload
Mass 260.00 kg
Dry Mass 248.00 kg
Total Mass 260.00 kg
Length 0.20 m
Diameter 2.80 m
Span 9.00 m
Shape Box + pan
Manufacturer SPXS
Bus Type Starlink
Phase Status In Orbit
Owner/State SPXS/US

Most Searched